RH
73 76 79 80 84 76 75 76 81 79 67 60 68 78 88 86 78 79 73 68 61 57
77 78 82 79 74 78 75 70 68 69 70 84 93 93 91 91 85 82 72 63 52 48
78 77 77 74 73 73 80 86 91 92 94 94 95 94 91 83 74 62 52 50 50 46
76 75 77 76 75 75 84 88 91 94 95 94 91 84 74 57 53 51 48 48 47 49
82 82 81 78 86 87 91 87 86 88 82 71 64 57 56 54 54 52 48 48 50 49
86 87 85 95 95 92 80 77 70 66 65 62 58 59 58 54 48 46 48 49 53 56
84 83 82 78 73 71 69 68 68 69 67 62 58 53 48 46 50 51 55 58 60 61
76 76 76 77 73 70 70 70 66 62 59 54 52 48 50 55 58 60 64 66 67 67
73 71 70 69 67 64 62 58 55 56 55 53 54 58 61 65 67 69 72 72 71 68
59 57 56 56 56 58 58 59 60 58 58 63 67 69 72 74 76 76 75 73 70 68
51 53 56 59 61 63 64 65 64 67 72 76 78 81 83 81 80 78 74 71 70 69
64 65 66 68 70 72 71 72 74 77 80 83 86 86 85 82 80 81 80 77 71 65
74 75 76 77 76 75 77 80 82 84 86 87 89 90 91 90 89 85 76 70 66 62
82 83 82 83 83 84 85 87 88 90 91 94 96 97 97 95 84 74 67 64 60 56